Time,TemperatureF,DewpointF,PressureIn,WindDirection,WindDirectionDegrees,WindSpeedMPH,WindSpeedGustMPH,Humidity,HourlyPrecipIn,Conditions,Clouds,dailyrainin,SoftwareType,DateUTC
2013-08-08 00:06:00,59.6,59.0,30.16,SSE,155,0.0,0.0,96,0.00,,,0.00,weatherlink.com 1.10,2013-08-08 04:06:00,
2013-08-08 00:21:00,59.6,59.0,30.16,SSE,155,0.0,0.0,96,0.00,,,0.00,weatherlink.com 1.10,2013-08-08 04:21:00,
2013-08-08 00:36:00,59.5,58.0,30.16,SSE,155,0.0,0.0,96,0.00,,,0.00,weatherlink.com 1.10,2013-08-08 04:36:00,
2013-08-08 00:51:00,59.4,58.0,30.15,SSW,202,0.0,1.0,96,0.00,,,0.00,weatherlink.com 1.10,2013-08-08 04:51:00,
2013-08-08 01:06:00,59.3,58.0,30.15,SE,145,0.0,0.0,96,0.00,,,0.00,weatherlink.com 1.10,2013-08-08 05:06:00,
2013-08-08 01:21:00,59.8,59.0,30.15,SSW,199,0.0,0.0,96,0.00,,,0.00,weatherlink.com 1.10,2013-08-08 05:21:00,
2013-08-08 01:36:00,59.7,59.0,30.15,SSW,192,0.0,0.0,96,0.00,,,0.00,weatherlink.com 1.10,2013-08-08 05:36:00,
2013-08-08 01:51:00,59.9,59.0,30.15,South,188,1.0,2.0,96,0.00,,,0.00,weatherlink.com 1.10,2013-08-08 05:51:00,
2013-08-08 02:06:00,60.1,59.0,30.14,SSW,210,1.0,4.0,96,0.00,,,0.00,weatherlink.com 1.10,2013-08-08 06:06:00,
2013-08-08 02:21:00,60.1,59.0,30.14,SSW,195,0.0,1.0,96,0.00,,,0.00,weatherlink.com 1.10,2013-08-08 06:21:00,
2013-08-08 02:36:00,60.1,59.0,30.14,WSW,237,0.0,1.0,96,0.00,,,0.00,weatherlink.com 1.10,2013-08-08 06:36:00,
2013-08-08 02:51:00,60.2,59.0,30.13,West,273,0.0,1.0,96,0.00,,,0.00,weatherlink.com 1.10,2013-08-08 06:51:00,
2013-08-08 03:06:00,60.7,59.0,30.13,WNW,291,0.0,5.0,95,0.00,,,0.00,weatherlink.com 1.10,2013-08-08 07:06:00,
2013-08-08 03:21:00,61.0,60.0,30.13,South,173,0.0,1.0,95,0.00,,,0.00,weatherlink.com 1.10,2013-08-08 07:21:00,
2013-08-08 03:36:00,61.3,60.0,30.13,SW,215,1.0,1.0,94,0.00,,,0.00,weatherlink.com 1.10,2013-08-08 07:36:00,
2013-08-08 03:51:00,61.7,60.0,30.13,WSW,244,0.0,6.0,94,0.00,,,0.00,weatherlink.com 1.10,2013-08-08 07:51:00,
2013-08-08 04:06:00,61.8,60.0,30.13,SE,137,0.0,2.0,93,0.00,,,0.00,weatherlink.com 1.10,2013-08-08 08:06:00,
2013-08-08 04:21:00,61.7,60.0,30.13,WSW,256,0.0,2.0,94,0.00,,,0.00,weatherlink.com 1.10,2013-08-08 08:21:00,
2013-08-08 04:36:00,61.6,60.0,30.12,SW,221,0.0,1.0,94,0.00,,,0.00,weatherlink.com 1.10,2013-08-08 08:36:00,
2013-08-08 04:52:00,61.4,60.0,30.12,SW,214,0.0,2.0,94,0.00,,,0.00,weatherlink.com 1.10,2013-08-08 08:52:00,
2013-08-08 05:07:00,61.5,60.0,30.12,SW,234,0.0,1.0,94,0.00,,,0.00,weatherlink.com 1.10,2013-08-08 09:07:00,
2013-08-08 05:22:00,61.4,60.0,30.12,WSW,252,0.0,1.0,95,0.00,,,0.00,weatherlink.com 1.10,2013-08-08 09:22:00,
2013-08-08 05:37:00,61.3,60.0,30.11,West,271,0.0,1.0,95,0.00,,,0.00,weatherlink.com 1.10,2013-08-08 09:37:00,
2013-08-08 05:52:00,61.3,60.0,30.11,WNW,300,0.0,1.0,95,0.00,,,0.00,weatherlink.com 1.10,2013-08-08 09:52:00,
2013-08-08 06:07:00,61.3,60.0,30.11,SE,143,0.0,1.0,95,0.00,,,0.00,weatherlink.com 1.10,2013-08-08 10:07:00,
2013-08-08 06:22:00,61.2,60.0,30.11,West,276,0.0,1.0,95,0.00,,,0.00,weatherlink.com 1.10,2013-08-08 10:22:00,
2013-08-08 06:37:00,61.6,60.0,30.11,SE,146,2.0,2.0,95,0.00,,,0.00,weatherlink.com 1.10,2013-08-08 10:37:00,
2013-08-08 06:52:00,62.3,61.0,30.11,WNW,288,1.0,2.0,95,0.00,,,0.00,weatherlink.com 1.10,2013-08-08 10:52:00,
2013-08-08 07:07:00,62.7,61.0,30.12,ESE,121,0.0,4.0,94,0.00,,,0.00,weatherlink.com 1.10,2013-08-08 11:07:00,
2013-08-08 07:22:00,62.8,61.0,30.12,SW,221,1.0,2.0,94,0.00,,,0.00,weatherlink.com 1.10,2013-08-08 11:22:00,
2013-08-08 07:37:00,63.0,61.0,30.12,West,263,4.0,6.0,94,0.00,,,0.00,weatherlink.com 1.10,2013-08-08 11:37:00,
2013-08-08 07:52:00,63.2,62.0,30.12,SSW,207,2.0,7.0,94,0.01,,,0.01,weatherlink.com 1.10,2013-08-08 11:52:00,
2013-08-08 08:07:00,62.9,62.0,30.12,SSE,160,1.0,7.0,95,0.06,,,0.06,weatherlink.com 1.10,2013-08-08 12:07:00,
2013-08-08 08:22:00,62.7,61.0,30.13,SSW,205,1.0,3.0,95,0.06,,,0.06,weatherlink.com 1.10,2013-08-08 12:22:00,
2013-08-08 08:37:00,62.2,61.0,30.13,SE,142,0.0,6.0,95,0.40,,,0.40,weatherlink.com 1.10,2013-08-08 12:37:00,
2013-08-08 08:52:00,62.1,61.0,30.13,SSE,160,0.0,6.0,96,0.44,,,0.45,weatherlink.com 1.10,2013-08-08 12:52:00,
2013-08-08 09:07:00,62.2,61.0,30.13,SW,233,1.0,2.0,96,0.41,,,0.47,weatherlink.com 1.10,2013-08-08 13:07:00,
2013-08-08 09:22:00,62.4,61.0,30.13,SSW,200,0.0,5.0,96,0.42,,,0.49,weatherlink.com 1.10,2013-08-08 13:22:00,
2013-08-08 09:37:00,62.7,62.0,30.12,SE,141,2.0,4.0,96,0.14,,,0.54,weatherlink.com 1.10,2013-08-08 13:37:00,
2013-08-08 09:52:00,62.6,62.0,30.12,South,176,1.0,5.0,96,0.14,,,0.59,weatherlink.com 1.10,2013-08-08 13:52:00,
2013-08-08 10:07:00,62.7,62.0,30.13,SE,124,0.0,4.0,96,0.13,,,0.61,weatherlink.com 1.10,2013-08-08 14:07:00,
2013-08-08 10:22:00,62.7,62.0,30.13,SSE,165,1.0,5.0,96,0.13,,,0.62,weatherlink.com 1.10,2013-08-08 14:22:00,
2013-08-08 10:37:00,62.8,62.0,30.13,SE,145,1.0,5.0,96,0.07,,,0.62,weatherlink.com 1.10,2013-08-08 14:37:00,
2013-08-08 10:52:00,62.8,62.0,30.12,SSE,156,0.0,6.0,96,0.05,,,0.64,weatherlink.com 1.10,2013-08-08 14:52:00,
2013-08-08 11:07:00,62.6,62.0,30.12,SSW,205,0.0,5.0,96,0.03,,,0.64,weatherlink.com 1.10,2013-08-08 15:07:00,
2013-08-08 11:22:00,62.6,62.0,30.12,SE,130,1.0,5.0,96,0.03,,,0.65,weatherlink.com 1.10,2013-08-08 15:22:00,
2013-08-08 11:37:00,62.6,62.0,30.11,SW,215,1.0,7.0,96,0.02,,,0.65,weatherlink.com 1.10,2013-08-08 15:37:00,
2013-08-08 11:52:00,62.8,62.0,30.11,SE,144,1.0,5.0,96,0.01,,,0.65,weatherlink.com 1.10,2013-08-08 15:52:00,
2013-08-08 12:07:00,63.0,62.0,30.10,SSE,157,0.0,6.0,96,0.01,,,0.65,weatherlink.com 1.10,2013-08-08 16:07:00,
2013-08-08 12:22:00,63.2,62.0,30.10,SE,146,4.0,5.0,95,0.00,,,0.65,weatherlink.com 1.10,2013-08-08 16:22:00,
2013-08-08 12:37:00,63.4,62.0,30.09,SE,137,4.0,5.0,95,0.00,,,0.65,weatherlink.com 1.10,2013-08-08 16:37:00,
2013-08-08 12:52:00,63.6,62.0,30.09,ESE,121,0.0,7.0,94,0.00,,,0.65,weatherlink.com 1.10,2013-08-08 16:52:00,
2013-08-08 13:07:00,63.9,62.0,30.09,East,88,1.0,8.0,94,0.00,,,0.65,weatherlink.com 1.10,2013-08-08 17:07:00,
2013-08-08 13:22:00,63.9,62.0,30.08,WNW,292,4.0,8.0,93,0.00,,,0.65,weatherlink.com 1.10,2013-08-08 17:22:00,
2013-08-08 13:37:00,64.0,62.0,30.08,SE,138,1.0,11.0,93,0.00,,,0.65,weatherlink.com 1.10,2013-08-08 17:37:00,
2013-08-08 13:52:00,64.2,62.0,30.08,WSW,249,0.0,9.0,92,0.00,,,0.65,weatherlink.com 1.10,2013-08-08 17:52:00,
2013-08-08 14:07:00,64.3,62.0,30.08,SE,137,1.0,10.0,93,0.00,,,0.65,weatherlink.com 1.10,2013-08-08 18:07:00,
2013-08-08 14:22:00,64.0,62.0,30.08,WNW,290,1.0,6.0,93,0.00,,,0.65,weatherlink.com 1.10,2013-08-08 18:22:00,
2013-08-08 14:37:00,64.5,63.0,30.08,SSW,211,0.0,10.0,93,0.00,,,0.65,weatherlink.com 1.10,2013-08-08 18:37:00,
2013-08-08 14:52:00,65.1,63.0,30.08,SSE,156,1.0,6.0,92,0.00,,,0.65,weatherlink.com 1.10,2013-08-08 18:52:00,
2013-08-08 15:07:00,65.1,63.0,30.08,SW,229,0.0,5.0,91,0.00,,,0.65,weatherlink.com 1.10,2013-08-08 19:07:00,
2013-08-08 15:22:00,64.8,62.0,30.08,NW,319,0.0,6.0,91,0.00,,,0.65,weatherlink.com 1.10,2013-08-08 19:22:00,
2013-08-08 15:37:00,64.8,62.0,30.08,West,263,1.0,7.0,91,0.00,,,0.65,weatherlink.com 1.10,2013-08-08 19:37:00,
2013-08-08 15:52:00,65.3,63.0,30.08,SSW,200,0.0,4.0,91,0.00,,,0.65,weatherlink.com 1.10,2013-08-08 19:52:00,
2013-08-08 16:07:00,65.4,63.0,30.07,SSE,153,1.0,4.0,91,0.00,,,0.65,weatherlink.com 1.10,2013-08-08 20:07:00,
2013-08-08 16:22:00,65.5,63.0,30.07,WSW,245,0.0,5.0,92,0.00,,,0.65,weatherlink.com 1.10,2013-08-08 20:22:00,
2013-08-08 16:37:00,66.1,64.0,30.07,West,263,2.0,4.0,92,0.00,,,0.65,weatherlink.com 1.10,2013-08-08 20:37:00,
2013-08-08 16:52:00,66.7,64.0,30.07,West,278,2.0,4.0,92,0.00,,,0.65,weatherlink.com 1.10,2013-08-08 20:52:00,
2013-08-08 17:07:00,67.3,65.0,30.07,SSE,157,3.0,4.0,92,0.00,,,0.65,weatherlink.com 1.10,2013-08-08 21:07:00,
2013-08-08 17:22:00,67.4,65.0,30.06,South,191,0.0,2.0,91,0.00,,,0.65,weatherlink.com 1.10,2013-08-08 21:22:00,
2013-08-08 17:52:00,66.8,65.0,30.06,SSE,162,0.0,2.0,92,0.00,,,0.65,weatherlink.com 1.10,2013-08-08 21:52:00,
2013-08-08 18:07:00,66.4,64.0,30.06,SE,142,0.0,1.0,92,0.00,,,0.65,weatherlink.com 1.10,2013-08-08 22:07:00,
2013-08-08 18:23:00,66.4,64.0,30.06,SW,223,0.0,1.0,93,0.00,,,0.65,weatherlink.com 1.10,2013-08-08 22:23:00,
2013-08-08 18:38:00,66.5,65.0,30.06,SE,134,0.0,1.0,93,0.00,,,0.65,weatherlink.com 1.10,2013-08-08 22:38:00,
2013-08-08 18:53:00,66.2,64.0,30.06,SE,129,0.0,2.0,93,0.00,,,0.65,weatherlink.com 1.10,2013-08-08 22:53:00,
2013-08-08 19:08:00,65.8,64.0,30.06,ESE,123,0.0,2.0,94,0.00,,,0.65,weatherlink.com 1.10,2013-08-08 23:08:00,
2013-08-08 19:38:00,65.2,64.0,30.06,SW,223,0.0,0.0,95,0.00,,,0.65,weatherlink.com 1.10,2013-08-08 23:38:00,
2013-08-08 19:53:00,65.0,64.0,30.06,SSE,150,1.0,4.0,95,0.00,,,0.65,weatherlink.com 1.10,2013-08-08 23:53:00,
2013-08-08 20:08:00,65.0,64.0,30.06,ESE,115,0.0,2.0,95,0.00,,,0.65,weatherlink.com 1.10,2013-08-09 00:08:00,
2013-08-08 20:23:00,64.9,64.0,30.06,WSW,246,0.0,2.0,95,0.00,,,0.65,weatherlink.com 1.10,2013-08-09 00:23:00,
2013-08-08 20:38:00,64.8,64.0,30.07,WSW,242,0.0,0.0,96,0.00,,,0.65,weatherlink.com 1.10,2013-08-09 00:38:00,
2013-08-08 20:53:00,64.6,64.0,30.07,WSW,242,0.0,0.0,96,0.00,,,0.65,weatherlink.com 1.10,2013-08-09 00:53:00,
2013-08-08 21:08:00,64.5,63.0,30.07,NNW,346,0.0,1.0,96,0.00,,,0.65,weatherlink.com 1.10,2013-08-09 01:08:00,
2013-08-08 21:23:00,64.4,63.0,30.07,NNW,346,0.0,0.0,96,0.00,,,0.65,weatherlink.com 1.10,2013-08-09 01:23:00,
2013-08-08 21:53:00,64.1,63.0,30.06,SE,146,0.0,1.0,96,0.00,,,0.65,weatherlink.com 1.10,2013-08-09 01:53:00,
2013-08-08 22:08:00,64.1,63.0,30.07,WSW,250,0.0,0.0,96,0.00,,,0.65,weatherlink.com 1.10,2013-08-09 02:08:00,
2013-08-08 22:23:00,64.1,63.0,30.06,SW,217,0.0,1.0,97,0.00,,,0.65,weatherlink.com 1.10,2013-08-09 02:23:00,
2013-08-08 22:38:00,64.1,63.0,30.05,SSE,149,0.0,1.0,97,0.00,,,0.65,weatherlink.com 1.10,2013-08-09 02:38:00,
2013-08-08 23:08:00,64.4,64.0,30.05,SSE,150,0.0,5.0,97,0.00,,,0.65,weatherlink.com 1.10,2013-08-09 03:08:00,
2013-08-08 23:23:00,64.3,64.0,30.05,SSW,213,0.0,1.0,97,0.00,,,0.65,weatherlink.com 1.10,2013-08-09 03:23:00,
2013-08-08 23:38:00,64.6,64.0,30.05,SSE,161,0.0,2.0,97,0.00,,,0.65,weatherlink.com 1.10,2013-08-09 03:38:00,
2013-08-08 23:53:00,64.5,64.0,30.05,WSW,237,0.0,2.0,97,0.00,,,0.65,weatherlink.com 1.10,2013-08-09 03:53:00,